Location: Cactus School
(34.5700°N, 118.0931°W)
Time: 09:38:45
(UTC-07:00)

S-56A Canister/Altair - Pass Details

Date: 13 April 2024
Orbit: 638 x 2488 km, 38.9° (Epoch: 29 May)

Event Time Altitude Azimuth Distance (km) Brightness Sun altitude
Rises 19:30:29 0° 248° (WSW) 3,494 11.9 -2.3°
Reaches altitude 10° 19:32:39 10° 248° (WSW) 2,722 11.3 -2.7°
Maximum altitude 19:39:17 89° 161° (SSE) 1,287 8.7 -4.0°
Drops below altitude 10° 19:49:38 10° 71° (ENE) 4,121 10.8 -6.1°
Sets 19:53:38 0° 71° (ENE) 5,395 11.3 -6.9°
